SWA3213 KMCO-TIST

Flight info

Callsign SWA3213
Flight time 2h 23m
Altitude 39000
Route DDANY3 JIPOD DCT BEERD Y185 RENAH Y355 KOLAO DCT JETSS
Aircraft B737/M-SADE2E3GIJ4RWZ/LB1D1

Departure

Time 2026-05-05 11:35
Airport Orlando International Airport (KMCO)

Arrival

Time 2026-05-05 13:59
Airport Cyril E. King Airport (TIST)
Time Latitude Longitude Altitude Speed Heading
2026-05-05 11:00 28.43358 -81.30018 94 ft 0 kts 342°
2026-05-05 11:25 28.43357 -81.30017 94 ft 2 kts 342°
2026-05-05 11:26 28.43332 -81.30009 93 ft 4 kts 346°
2026-05-05 11:26 28.43306 -81.30003 94 ft 4 kts
2026-05-05 11:26 28.43284 -81.30011 94 ft 3 kts 65°
2026-05-05 11:26 28.43283 -81.30014 94 ft 1 kts 71°
2026-05-05 11:29 28.43283 -81.30015 94 ft 0 kts 71°
2026-05-05 11:29 28.43283 -81.30014 94 ft 0 kts 71°
2026-05-05 11:29 28.43287 -81.30000 94 ft 6 kts 71°
2026-05-05 11:29 28.43309 -81.29930 95 ft 12 kts 69°
2026-05-05 11:30 28.43339 -81.29839 94 ft 12 kts 80°
2026-05-05 11:30 28.43291 -81.29803 94 ft 10 kts 180°
2026-05-05 11:30 28.43205 -81.29803 95 ft 15 kts 180°
2026-05-05 11:30 28.43077 -81.29801 95 ft 21 kts 179°
2026-05-05 11:31 28.42913 -81.29800 95 ft 26 kts 179°
2026-05-05 11:31 28.42718 -81.29798 94 ft 30 kts 179°
2026-05-05 11:31 28.42515 -81.29796 94 ft 28 kts 179°
2026-05-05 11:31 28.42327 -81.29793 95 ft 25 kts 180°
2026-05-05 11:32 28.42159 -81.29792 95 ft 24 kts 179°
2026-05-05 11:32 28.41988 -81.29790 93 ft 25 kts 180°
2026-05-05 11:32 28.41808 -81.29788 97 ft 27 kts 179°
2026-05-05 11:32 28.41620 -81.29786 93 ft 28 kts 179°
2026-05-05 11:33 28.41430 -81.29784 93 ft 27 kts 179°
2026-05-05 11:33 28.41255 -81.29783 93 ft 24 kts 179°
2026-05-05 11:33 28.41099 -81.29781 93 ft 21 kts 179°
2026-05-05 11:33 28.40963 -81.29779 93 ft 18 kts 179°
2026-05-05 11:34 28.40846 -81.29774 93 ft 15 kts 158°
2026-05-05 11:34 28.40820 -81.29676 93 ft 13 kts 89°
2026-05-05 11:34 28.40822 -81.29583 94 ft 11 kts 80°
2026-05-05 11:34 28.40886 -81.29559 93 ft 17 kts 359°
2026-05-05 11:35 28.41253 -81.29563 95 ft 89 kts 359°
2026-05-05 11:35 28.42100 -81.29573 96 ft 151 kts 360°
2026-05-05 11:35 28.43271 -81.29579 429 ft 174 kts
2026-05-05 11:35 28.44487 -81.29596 1246 ft 175 kts
2026-05-05 11:36 28.45675 -81.29261 1708 ft 188 kts 41°
2026-05-05 11:36 28.46240 -81.28486 1912 ft 200 kts 60°
2026-05-05 11:36 28.47326 -81.26574 2238 ft 232 kts 57°
2026-05-05 11:36 28.48310 -81.24981 2604 ft 254 kts 55°
2026-05-05 11:37 28.49361 -81.23334 3326 ft 260 kts 54°
2026-05-05 11:37 28.50273 -81.21542 4111 ft 265 kts 67°
2026-05-05 11:37 28.50804 -81.19522 4690 ft 269 kts 77°
2026-05-05 11:37 28.51056 -81.18110 4931 ft 271 kts 78°
2026-05-05 11:38 28.51072 -81.15972 4972 ft 273 kts 103°
2026-05-05 11:38 28.50565 -81.13862 5455 ft 279 kts 105°
2026-05-05 11:38 28.50057 -81.11728 6529 ft 281 kts 105°
2026-05-05 11:38 28.49564 -81.09591 7470 ft 286 kts 105°
2026-05-05 11:39 28.49058 -81.07378 8379 ft 292 kts 105°
2026-05-05 11:39 28.48376 -81.05187 9272 ft 297 kts 122°
2026-05-05 11:39 28.47010 -81.03438 10164 ft 298 kts 142°
2026-05-05 11:39 28.45359 -81.01909 10639 ft 319 kts 143°
2026-05-05 11:40 28.43534 -81.00285 10923 ft 344 kts 144°
2026-05-05 11:40 28.41623 -80.98585 11584 ft 353 kts 144°
2026-05-05 11:40 28.39678 -80.96838 12368 ft 359 kts 143°
2026-05-05 11:40 28.37709 -80.95058 13169 ft 365 kts 143°
2026-05-05 11:41 28.35714 -80.93247 13932 ft 370 kts 144°
2026-05-05 11:41 28.33684 -80.91400 14604 ft 376 kts 144°
2026-05-05 11:41 28.31630 -80.89530 15304 ft 381 kts 144°
2026-05-05 11:41 28.29549 -80.87637 16038 ft 386 kts 143°
2026-05-05 11:42 28.27708 -80.85384 16684 ft 397 kts 123°
2026-05-05 11:42 28.26508 -80.82542 17434 ft 402 kts 113°
2026-05-05 11:42 28.25475 -80.79578 18133 ft 408 kts 112°
2026-05-05 11:42 28.24447 -80.76552 18714 ft 414 kts 112°
2026-05-05 11:43 28.23386 -80.73491 19272 ft 420 kts 112°
2026-05-05 11:43 28.22286 -80.70400 19823 ft 426 kts 113°
2026-05-05 11:43 28.21157 -80.67269 20387 ft 432 kts 113°
2026-05-05 11:43 28.20057 -80.64113 20933 ft 438 kts 111°
2026-05-05 11:44 28.18982 -80.60861 21465 ft 444 kts 110°
2026-05-05 11:44 28.17894 -80.57515 22001 ft 450 kts 110°
2026-05-05 11:44 28.16820 -80.54212 22527 ft 455 kts 110°
2026-05-05 11:44 28.15712 -80.50827 23060 ft 460 kts 110°
2026-05-05 11:45 28.14586 -80.47413 23565 ft 466 kts 110°
2026-05-05 11:45 28.13441 -80.43958 23989 ft 471 kts 110°
2026-05-05 11:45 28.12282 -80.40468 24453 ft 474 kts 110°
2026-05-05 11:45 28.11116 -80.36960 24948 ft 477 kts 110°
2026-05-05 11:46 28.09943 -80.33435 25411 ft 481 kts 110°
2026-05-05 11:46 28.08809 -80.29858 25834 ft 484 kts 107°
2026-05-05 11:46 28.07796 -80.26210 26253 ft 488 kts 105°
2026-05-05 11:46 28.06842 -80.22514 26687 ft 491 kts 104°
2026-05-05 11:47 28.05903 -80.18785 27117 ft 494 kts 104°
2026-05-05 11:47 28.04956 -80.15029 27537 ft 498 kts 104°
2026-05-05 11:47 28.03989 -80.11251 27922 ft 502 kts 104°
2026-05-05 11:47 28.03002 -80.07451 28324 ft 505 kts 104°
2026-05-05 11:48 28.00979 -79.99788 29089 ft 512 kts 104°
2026-05-05 11:48 27.99949 -79.95917 29462 ft 515 kts 104°
2026-05-05 11:48 27.98913 -79.92028 29828 ft 518 kts 104°
2026-05-05 11:49 27.97868 -79.88105 30166 ft 522 kts 104°
2026-05-05 11:49 27.96817 -79.84165 30472 ft 524 kts 104°
2026-05-05 11:49 27.95759 -79.80206 30793 ft 527 kts 104°
2026-05-05 11:49 27.94699 -79.76236 31106 ft 528 kts 104°
2026-05-05 11:50 27.93645 -79.72299 31405 ft 531 kts 104°
2026-05-05 11:50 27.92574 -79.68306 31779 ft 531 kts 104°
2026-05-05 11:50 27.91505 -79.64315 32238 ft 529 kts 104°
2026-05-05 11:50 27.90437 -79.60341 32699 ft 527 kts 104°
2026-05-05 11:51 27.89371 -79.56375 33071 ft 527 kts 104°
2026-05-05 11:51 27.88305 -79.52411 33404 ft 527 kts 104°
2026-05-05 11:51 27.87236 -79.48443 33759 ft 528 kts 104°
2026-05-05 11:51 27.86169 -79.44484 34137 ft 527 kts 104°
2026-05-05 11:52 27.85100 -79.40530 34461 ft 526 kts 104°
2026-05-05 11:52 27.84029 -79.36574 34727 ft 527 kts 104°
2026-05-05 11:52 27.82956 -79.32613 34964 ft 528 kts 104°
2026-05-05 11:52 27.81881 -79.28649 35230 ft 528 kts 104°
2026-05-05 11:53 27.80806 -79.24689 35523 ft 528 kts 104°
2026-05-05 11:53 27.79728 -79.20724 35799 ft 527 kts 104°
2026-05-05 11:53 27.78648 -79.16759 36036 ft 528 kts 104°
2026-05-05 11:53 27.77568 -79.12799 36280 ft 528 kts 104°
2026-05-05 11:54 27.76486 -79.08829 36539 ft 528 kts 104°
2026-05-05 11:54 27.75405 -79.04871 36797 ft 528 kts 104°
2026-05-05 11:54 27.74321 -79.00907 37037 ft 528 kts 104°
2026-05-05 11:54 27.73238 -78.96950 37240 ft 529 kts 105°
2026-05-05 11:55 27.72147 -78.92977 37481 ft 529 kts 105°
2026-05-05 11:55 27.71060 -78.89025 37761 ft 528 kts 105°
2026-05-05 11:55 27.69972 -78.85066 37957 ft 528 kts 105°
2026-05-05 11:55 27.68882 -78.81106 38146 ft 529 kts 105°
2026-05-05 11:56 27.67804 -78.77191 38278 ft 530 kts 105°
2026-05-05 11:56 27.66708 -78.73212 38460 ft 531 kts 105°
2026-05-05 11:56 27.65610 -78.69234 38688 ft 531 kts 105°
2026-05-05 11:56 27.64397 -78.65304 38883 ft 531 kts 112°
2026-05-05 11:57 27.62769 -78.61573 39029 ft 531 kts 123°
2026-05-05 11:57 27.60764 -78.58072 39062 ft 533 kts 125°
2026-05-05 11:57 27.56593 -78.51174 39054 ft 530 kts 126°
2026-05-05 11:58 27.52487 -78.44326 39053 ft 525 kts 125°
2026-05-05 11:58 27.48460 -78.37482 39052 ft 522 kts 125°
2026-05-05 11:59 27.44468 -78.30671 39059 ft 519 kts 125°
2026-05-05 11:59 27.40489 -78.23906 39060 ft 518 kts 125°
2026-05-05 12:00 27.36532 -78.17192 39066 ft 519 kts 125°
2026-05-05 12:00 27.32533 -78.10418 39067 ft 520 kts 125°
2026-05-05 12:01 27.28522 -78.03619 39070 ft 523 kts 125°
2026-05-05 12:01 27.24492 -77.96787 39057 ft 526 kts 126°
2026-05-05 12:02 27.20443 -77.89931 39060 ft 527 kts 126°
2026-05-05 12:02 27.16376 -77.83058 39060 ft 529 kts 126°
2026-05-05 12:03 27.12299 -77.76180 39055 ft 529 kts 126°
2026-05-05 12:03 27.08219 -77.69308 39045 ft 528 kts 126°
2026-05-05 12:04 27.04148 -77.62457 39042 ft 526 kts 126°
2026-05-05 12:04 27.00092 -77.55638 39050 ft 524 kts 126°
2026-05-05 12:05 26.96095 -77.48807 39045 ft 523 kts 125°
2026-05-05 12:05 26.92162 -77.42031 39041 ft 521 kts 125°
2026-05-05 12:06 26.88207 -77.35237 39042 ft 519 kts 126°
2026-05-05 12:06 26.84254 -77.28474 39045 ft 518 kts 126°
2026-05-05 12:07 26.80306 -77.21734 39041 ft 517 kts 126°
2026-05-05 12:07 26.76357 -77.15003 39048 ft 517 kts 126°
2026-05-05 12:08 26.72408 -77.08281 39047 ft 517 kts 126°
2026-05-05 12:08 26.68456 -77.01562 39042 ft 517 kts 126°
2026-05-05 12:09 26.64498 -76.94845 39045 ft 517 kts 126°
2026-05-05 12:09 26.60533 -76.88128 39042 ft 517 kts 126°
2026-05-05 12:10 26.56593 -76.81459 39045 ft 518 kts 126°
2026-05-05 12:10 26.52624 -76.74751 39045 ft 518 kts 127°
2026-05-05 12:11 26.48652 -76.68049 39055 ft 517 kts 127°
2026-05-05 12:11 26.44679 -76.61360 39037 ft 518 kts 127°
2026-05-05 12:12 26.40695 -76.54659 39041 ft 517 kts 127°
2026-05-05 12:12 26.36719 -76.47978 39046 ft 517 kts 127°
2026-05-05 12:13 26.32741 -76.41297 39037 ft 517 kts 127°
2026-05-05 12:13 26.28762 -76.34634 39037 ft 516 kts 127°
2026-05-05 12:14 26.24781 -76.27983 39042 ft 515 kts 127°
2026-05-05 12:14 26.20809 -76.21346 39042 ft 515 kts 127°
2026-05-05 12:15 26.16835 -76.14720 39054 ft 515 kts 127°
2026-05-05 12:15 26.12858 -76.08097 39039 ft 515 kts 127°
2026-05-05 12:16 26.08881 -76.01487 39043 ft 514 kts 127°
2026-05-05 12:16 26.04899 -75.94874 39043 ft 514 kts 127°
2026-05-05 12:17 26.00942 -75.88310 39041 ft 514 kts 127°
2026-05-05 12:17 25.96962 -75.81722 39050 ft 513 kts 127°
2026-05-05 12:18 25.92978 -75.75138 39048 ft 513 kts 127°
2026-05-05 12:18 25.88995 -75.68563 39045 ft 513 kts 127°
2026-05-05 12:19 25.85012 -75.61994 39062 ft 513 kts 127°
2026-05-05 12:19 25.81014 -75.55412 39056 ft 514 kts 127°
2026-05-05 12:20 25.77018 -75.48844 39050 ft 514 kts 127°
2026-05-05 12:20 25.73014 -75.42271 39048 ft 514 kts 127°
2026-05-05 12:21 25.69018 -75.35717 39047 ft 514 kts 127°
2026-05-05 12:21 25.65007 -75.29154 39048 ft 514 kts 127°
2026-05-05 12:22 25.61000 -75.22603 39047 ft 513 kts 127°
2026-05-05 12:22 25.56988 -75.16055 39048 ft 513 kts 127°
2026-05-05 12:23 25.53016 -75.09555 39054 ft 514 kts 128°
2026-05-05 12:23 25.49005 -75.03025 39049 ft 512 kts 128°
2026-05-05 12:24 25.44991 -74.96521 39048 ft 512 kts 128°
2026-05-05 12:24 25.40981 -74.90012 39053 ft 512 kts 127°
2026-05-05 12:25 25.36972 -74.83510 39052 ft 511 kts 127°
2026-05-05 12:25 25.33613 -74.78074 39053 ft 512 kts 127°
2026-05-05 12:26 25.29622 -74.71614 39051 ft 512 kts 128°
2026-05-05 12:26 25.25601 -74.65127 39054 ft 512 kts 128°
2026-05-05 12:27 25.21581 -74.58645 39047 ft 511 kts 127°
2026-05-05 12:27 25.17558 -74.52199 39077 ft 507 kts 127°
2026-05-05 12:28 25.13570 -74.45764 39037 ft 510 kts 126°
2026-05-05 12:28 25.09530 -74.39304 39028 ft 512 kts 128°
2026-05-05 12:29 25.05581 -74.32827 39047 ft 512 kts 127°
2026-05-05 12:29 25.01406 -74.26496 39053 ft 511 kts 130°
2026-05-05 12:30 24.97524 -74.20289 39029 ft 514 kts 128°
2026-05-05 12:30 24.93533 -74.13810 39032 ft 508 kts 128°
2026-05-05 12:31 24.89576 -74.07382 39039 ft 506 kts 127°
2026-05-05 12:31 24.85617 -74.00959 39051 ft 508 kts 127°
2026-05-05 12:32 24.81603 -73.94555 39054 ft 508 kts 129°
2026-05-05 12:32 24.77547 -73.88183 39051 ft 509 kts 128°
2026-05-05 12:33 24.73500 -73.81789 39055 ft 509 kts 128°
2026-05-05 12:33 24.69466 -73.75390 39060 ft 509 kts 128°
2026-05-05 12:34 24.65427 -73.68991 39060 ft 510 kts 128°
2026-05-05 12:34 24.61404 -73.62631 39048 ft 510 kts 128°
2026-05-05 12:35 24.57352 -73.56231 39056 ft 510 kts 128°
2026-05-05 12:35 24.53542 -73.49636 39057 ft 513 kts 124°
2026-05-05 12:36 24.49947 -73.42861 39057 ft 513 kts 123°
2026-05-05 12:36 24.46356 -73.36092 39053 ft 513 kts 123°
2026-05-05 12:37 24.42730 -73.29362 39054 ft 512 kts 124°
2026-05-05 12:37 24.39079 -73.22639 39060 ft 512 kts 124°
2026-05-05 12:38 24.35427 -73.15929 39057 ft 512 kts 124°
2026-05-05 12:38 24.31774 -73.09220 39058 ft 512 kts 124°
2026-05-05 12:39 24.28121 -73.02514 39059 ft 513 kts 124°
2026-05-05 12:39 24.24462 -72.95808 39058 ft 513 kts 124°
2026-05-05 12:40 24.20797 -72.89100 39058 ft 513 kts 124°
2026-05-05 12:40 24.17158 -72.82448 39058 ft 513 kts 124°
2026-05-05 12:41 24.13489 -72.75753 39058 ft 513 kts 124°
2026-05-05 12:41 24.09816 -72.69058 39055 ft 513 kts 124°
2026-05-05 12:42 24.06138 -72.62363 39059 ft 513 kts 124°
2026-05-05 12:42 24.02457 -72.55671 39057 ft 513 kts 123°
2026-05-05 12:43 23.98773 -72.48983 39058 ft 513 kts 123°
2026-05-05 12:43 23.95087 -72.42299 39060 ft 513 kts 123°
2026-05-05 12:44 23.91398 -72.35618 39060 ft 513 kts 123°
2026-05-05 12:44 23.87704 -72.28939 39062 ft 513 kts 123°
2026-05-05 12:45 23.84034 -72.22311 39057 ft 513 kts 123°
2026-05-05 12:45 23.80345 -72.15654 39057 ft 512 kts 123°
2026-05-05 12:46 23.76654 -72.09000 39055 ft 512 kts 123°
2026-05-05 12:46 23.72967 -72.02365 39065 ft 511 kts 123°
2026-05-05 12:47 23.69276 -71.95730 39060 ft 510 kts 123°
2026-05-05 12:47 23.65593 -71.89115 39065 ft 510 kts 123°
2026-05-05 12:48 23.61908 -71.82508 39050 ft 509 kts 123°
2026-05-05 12:48 23.57950 -71.76150 39066 ft 505 kts 130°
2026-05-05 12:49 23.53699 -71.70129 39056 ft 504 kts 131°
2026-05-05 12:49 23.49400 -71.64077 39059 ft 504 kts 130°
2026-05-05 12:50 23.45156 -71.58010 39060 ft 503 kts 130°
2026-05-05 12:50 23.40930 -71.51928 39062 ft 503 kts 130°
2026-05-05 12:51 23.36710 -71.45854 39062 ft 503 kts 130°
2026-05-05 12:51 23.32488 -71.39792 39061 ft 502 kts 130°
2026-05-05 12:52 23.28266 -71.33739 39061 ft 502 kts 130°
2026-05-05 12:52 23.24042 -71.27691 39059 ft 502 kts 130°
2026-05-05 12:53 23.19818 -71.21650 39063 ft 501 kts 130°
2026-05-05 12:53 23.15596 -71.15618 39060 ft 501 kts 130°
2026-05-05 12:54 23.09265 -71.06587 39064 ft 500 kts 130°
2026-05-05 12:55 23.05048 -71.00580 39064 ft 500 kts 130°
2026-05-05 12:55 23.00836 -70.94587 39067 ft 499 kts 130°
2026-05-05 12:56 22.96631 -70.88609 39066 ft 497 kts 130°
2026-05-05 12:56 22.92439 -70.82658 39066 ft 496 kts 130°
2026-05-05 12:57 22.88253 -70.76730 39062 ft 494 kts 131°
2026-05-05 12:57 22.84083 -70.70833 39061 ft 492 kts 131°
2026-05-05 12:58 22.79925 -70.64957 39064 ft 490 kts 131°
2026-05-05 12:58 22.75783 -70.59109 39064 ft 488 kts 131°
2026-05-05 12:59 22.71659 -70.53293 39060 ft 486 kts 131°
2026-05-05 12:59 22.67540 -70.47491 39066 ft 485 kts 131°
2026-05-05 13:00 22.61378 -70.38822 39065 ft 484 kts 132°
2026-05-05 13:01 22.53182 -70.27315 39069 ft 485 kts 132°
2026-05-05 13:01 22.49033 -70.21499 39066 ft 486 kts 133°
2026-05-05 13:02 22.44925 -70.15747 39073 ft 487 kts 133°
2026-05-05 13:02 22.40776 -70.09943 39076 ft 488 kts 133°
2026-05-05 13:03 22.36614 -70.04125 39071 ft 490 kts 133°
2026-05-05 13:03 22.32441 -69.98300 39069 ft 491 kts 133°
2026-05-05 13:04 22.28239 -69.92499 39070 ft 491 kts 134°
2026-05-05 13:04 22.24016 -69.86702 39070 ft 491 kts 134°
2026-05-05 13:05 22.19814 -69.80888 39074 ft 491 kts 134°
2026-05-05 13:05 22.15625 -69.75061 39080 ft 490 kts 134°
2026-05-05 13:06 22.11447 -69.69254 39077 ft 490 kts 134°
2026-05-05 13:06 22.07271 -69.63463 39074 ft 489 kts 134°
2026-05-05 13:07 22.03101 -69.57690 39078 ft 487 kts 134°
2026-05-05 13:07 21.98940 -69.51935 39076 ft 486 kts 134°
2026-05-05 13:08 21.94811 -69.46231 39070 ft 485 kts 134°
2026-05-05 13:08 21.90654 -69.40495 39072 ft 485 kts 134°
2026-05-05 13:09 21.86508 -69.34779 39077 ft 484 kts 134°
2026-05-05 13:09 21.82363 -69.29070 39080 ft 484 kts 134°
2026-05-05 13:10 21.78216 -69.23366 39084 ft 484 kts 134°
2026-05-05 13:10 21.74067 -69.17665 39083 ft 484 kts 134°
2026-05-05 13:11 21.69912 -69.11960 39083 ft 484 kts 134°
2026-05-05 13:11 21.65754 -69.06258 39081 ft 485 kts 134°
2026-05-05 13:12 21.61592 -69.00555 39083 ft 485 kts 134°
2026-05-05 13:12 21.57417 -68.94842 39086 ft 485 kts 134°
2026-05-05 13:13 21.53243 -68.89136 39080 ft 486 kts 134°
2026-05-05 13:13 21.49094 -68.83470 39085 ft 486 kts 134°
2026-05-05 13:14 21.44917 -68.77770 39086 ft 486 kts 134°
2026-05-05 13:14 21.40728 -68.72061 39086 ft 486 kts 134°
2026-05-05 13:15 21.37222 -68.67287 39085 ft 486 kts 134°
2026-05-05 13:15 21.33064 -68.61630 39087 ft 486 kts 134°
2026-05-05 13:16 21.28877 -68.55940 39082 ft 486 kts 134°
2026-05-05 13:16 21.24692 -68.50259 39088 ft 486 kts 134°
2026-05-05 13:17 21.20501 -68.44576 39091 ft 486 kts 134°
2026-05-05 13:17 21.16315 -68.38904 39082 ft 485 kts 134°
2026-05-05 13:18 21.12120 -68.33227 39091 ft 486 kts 133°
2026-05-05 13:18 21.07922 -68.27551 39094 ft 486 kts 133°
2026-05-05 13:19 21.03721 -68.21877 39088 ft 486 kts 133°
2026-05-05 13:19 20.99520 -68.16207 39095 ft 486 kts 133°
2026-05-05 13:20 20.95342 -68.10575 39090 ft 486 kts 133°
2026-05-05 13:20 20.91130 -68.04902 39091 ft 487 kts 133°
2026-05-05 13:21 20.86916 -67.99231 39091 ft 487 kts 133°
2026-05-05 13:21 20.82722 -67.93528 39092 ft 488 kts 133°
2026-05-05 13:22 20.78562 -67.87797 39093 ft 488 kts 132°
2026-05-05 13:22 20.74391 -67.82057 39090 ft 489 kts 132°
2026-05-05 13:23 20.70214 -67.76326 39089 ft 489 kts 132°
2026-05-05 13:23 20.66030 -67.70597 39094 ft 489 kts 132°
2026-05-05 13:24 20.61845 -67.64872 39095 ft 489 kts 132°
2026-05-05 13:24 20.57653 -67.59144 39094 ft 490 kts 132°
2026-05-05 13:25 20.53460 -67.53418 39092 ft 490 kts 132°
2026-05-05 13:25 20.49263 -67.47692 39096 ft 490 kts 132°
2026-05-05 13:26 20.45090 -67.42005 39095 ft 490 kts 132°
2026-05-05 13:26 20.40891 -67.36287 39099 ft 490 kts 132°
2026-05-05 13:27 20.36687 -67.30571 39094 ft 490 kts 132°
2026-05-05 13:27 20.32480 -67.24854 39095 ft 490 kts 132°
2026-05-05 13:28 20.28277 -67.19147 39093 ft 490 kts 132°
2026-05-05 13:28 20.24072 -67.13440 39095 ft 489 kts 132°
2026-05-05 13:29 20.19869 -67.07743 39093 ft 489 kts 132°
2026-05-05 13:29 20.15663 -67.02047 39097 ft 489 kts 132°
2026-05-05 13:30 20.11459 -66.96359 39098 ft 489 kts 132°
2026-05-05 13:30 20.07254 -66.90676 39092 ft 489 kts 132°
2026-05-05 13:31 20.03053 -66.85001 39095 ft 488 kts 132°
2026-05-05 13:31 19.98910 -66.79265 39088 ft 490 kts 126°
2026-05-05 13:32 19.95584 -66.72921 39095 ft 493 kts 120°
2026-05-05 13:32 19.92449 -66.66436 39100 ft 492 kts 120°
2026-05-05 13:33 19.89295 -66.59990 39098 ft 492 kts 120°
2026-05-05 13:33 19.86094 -66.53562 39095 ft 492 kts 121°
2026-05-05 13:34 19.82881 -66.47158 39096 ft 491 kts 121°
2026-05-05 13:34 19.79662 -66.40747 39098 ft 491 kts 121°
2026-05-05 13:35 19.76445 -66.34345 39096 ft 491 kts 121°
2026-05-05 13:35 19.73253 -66.27995 39098 ft 491 kts 121°
2026-05-05 13:36 19.70040 -66.21609 39098 ft 490 kts 121°
2026-05-05 13:36 19.66813 -66.15207 38591 ft 498 kts 121°
2026-05-05 13:37 19.65176 -66.11961 37955 ft 497 kts 121°
2026-05-05 13:37 19.63551 -66.08740 37290 ft 496 kts 120°
2026-05-05 13:37 19.61924 -66.05516 36615 ft 495 kts 120°
2026-05-05 13:37 19.60302 -66.02302 35925 ft 494 kts 120°
2026-05-05 13:38 19.58673 -65.99082 35135 ft 496 kts 120°
2026-05-05 13:38 19.57035 -65.95848 34329 ft 499 kts 120°
2026-05-05 13:38 19.55393 -65.92603 33384 ft 501 kts 120°
2026-05-05 13:38 19.53742 -65.89341 32481 ft 502 kts 120°
2026-05-05 13:39 19.52103 -65.86101 31854 ft 496 kts 120°
2026-05-05 13:39 19.50481 -65.82894 31222 ft 491 kts 120°
2026-05-05 13:39 19.48874 -65.79722 30610 ft 486 kts 120°
2026-05-05 13:39 19.47294 -65.76606 29943 ft 474 kts 120°
2026-05-05 13:40 19.45756 -65.73574 29259 ft 461 kts 120°
2026-05-05 13:40 19.44243 -65.70594 28644 ft 456 kts 120°
2026-05-05 13:40 19.42750 -65.67656 28018 ft 451 kts 120°
2026-05-05 13:40 19.41267 -65.64739 27414 ft 447 kts 120°
2026-05-05 13:41 19.39821 -65.61898 26828 ft 442 kts 120°
2026-05-05 13:41 19.38368 -65.59041 26237 ft 438 kts 120°
2026-05-05 13:41 19.36927 -65.56211 25651 ft 435 kts 120°
2026-05-05 13:41 19.35498 -65.53404 25040 ft 432 kts 120°
2026-05-05 13:42 19.34076 -65.50613 24430 ft 430 kts 120°
2026-05-05 13:42 19.32646 -65.47838 23836 ft 427 kts 123°
2026-05-05 13:42 19.30762 -65.45456 23139 ft 421 kts 142°
2026-05-05 13:42 19.28323 -65.43819 22531 ft 412 kts 158°
2026-05-05 13:43 19.25612 -65.42953 21905 ft 405 kts 174°
2026-05-05 13:43 19.22838 -65.42602 21319 ft 400 kts 176°
2026-05-05 13:43 19.20072 -65.42322 20713 ft 398 kts 177°
2026-05-05 13:43 19.17327 -65.42058 20097 ft 396 kts 177°
2026-05-05 13:44 19.14590 -65.41788 19496 ft 394 kts 177°
2026-05-05 13:44 19.11866 -65.41509 18893 ft 393 kts 177°
2026-05-05 13:44 19.09149 -65.41222 18283 ft 392 kts 176°
2026-05-05 13:44 19.06440 -65.40928 17618 ft 390 kts 176°
2026-05-05 13:45 19.03753 -65.40633 17010 ft 387 kts 176°
2026-05-05 13:45 19.01088 -65.40338 16430 ft 383 kts 176°
2026-05-05 13:45 18.98446 -65.40046 15840 ft 380 kts 176°
2026-05-05 13:45 18.95825 -65.39754 15245 ft 378 kts 176°
2026-05-05 13:46 18.93216 -65.39466 14655 ft 375 kts 175°
2026-05-05 13:46 18.90668 -65.39183 14003 ft 363 kts 175°
2026-05-05 13:46 18.88223 -65.38910 13345 ft 355 kts 174°
2026-05-05 13:46 18.85779 -65.38643 12773 ft 352 kts 174°
2026-05-05 13:47 18.83349 -65.38375 12196 ft 346 kts 174°
2026-05-05 13:47 18.80980 -65.38111 11639 ft 336 kts 174°
2026-05-05 13:47 18.78688 -65.37853 11101 ft 331 kts 174°
2026-05-05 13:47 18.76386 -65.37595 10581 ft 331 kts 174°
2026-05-05 13:48 18.74176 -65.37351 10407 ft 311 kts 174°
2026-05-05 13:48 18.72057 -65.37118 10276 ft 301 kts 174°
2026-05-05 13:48 18.70012 -65.36898 10137 ft 289 kts 174°
2026-05-05 13:48 18.68057 -65.36682 10000 ft 277 kts 173°
2026-05-05 13:49 18.66215 -65.36107 9631 ft 278 kts 155°
2026-05-05 13:49 18.64487 -65.35194 9274 ft 278 kts 153°
2026-05-05 13:49 18.62790 -65.34253 8900 ft 275 kts 152°
2026-05-05 13:49 18.61106 -65.33317 8539 ft 273 kts 152°
2026-05-05 13:50 18.59426 -65.32389 8187 ft 272 kts 152°
2026-05-05 13:50 18.57753 -65.31472 7846 ft 270 kts 152°
2026-05-05 13:50 18.56089 -65.30565 7495 ft 268 kts 152°
2026-05-05 13:50 18.54432 -65.29665 7155 ft 265 kts 152°
2026-05-05 13:51 18.52815 -65.28788 6786 ft 258 kts 152°
2026-05-05 13:51 18.51246 -65.27940 6459 ft 250 kts 152°
2026-05-05 13:51 18.49706 -65.27107 6131 ft 253 kts 151°
2026-05-05 13:51 18.48136 -65.26259 5789 ft 253 kts 151°
2026-05-05 13:52 18.46566 -65.25413 5451 ft 253 kts 151°
2026-05-05 13:52 18.45005 -65.24571 5118 ft 252 kts 151°
2026-05-05 13:52 18.43445 -65.23730 4772 ft 252 kts 151°
2026-05-05 13:52 18.41888 -65.22891 4435 ft 250 kts 151°
2026-05-05 13:53 18.40384 -65.22080 4260 ft 235 kts 151°
2026-05-05 13:53 18.38946 -65.21307 4147 ft 229 kts 151°
2026-05-05 13:53 18.37566 -65.20566 4036 ft 219 kts 151°
2026-05-05 13:53 18.36241 -65.19851 3967 ft 207 kts 151°
2026-05-05 13:54 18.34991 -65.19179 3871 ft 198 kts 150°
2026-05-05 13:54 18.33832 -65.18415 3670 ft 199 kts 130°
2026-05-05 13:54 18.33331 -65.17100 3504 ft 193 kts 101°
2026-05-05 13:54 18.33182 -65.15729 3218 ft 189 kts 97°
2026-05-05 13:55 18.33087 -65.14384 2973 ft 179 kts 96°
2026-05-05 13:55 18.33077 -65.13125 2749 ft 165 kts 92°
2026-05-05 13:55 18.33117 -65.11953 2501 ft 157 kts 91°
2026-05-05 13:55 18.33163 -65.10827 2303 ft 154 kts 91°
2026-05-05 13:56 18.33210 -65.09689 2101 ft 158 kts 89°
2026-05-05 13:56 18.33260 -65.08535 1898 ft 156 kts 90°
2026-05-05 13:56 18.33307 -65.07405 1708 ft 153 kts 90°
2026-05-05 13:56 18.33352 -65.06287 1508 ft 157 kts 90°
2026-05-05 13:57 18.33400 -65.05163 1280 ft 149 kts 90°
2026-05-05 13:57 18.33445 -65.04109 1111 ft 139 kts 91°
2026-05-05 13:57 18.33486 -65.03112 937 ft 136 kts 91°
2026-05-05 13:57 18.33537 -65.02115 805 ft 135 kts 91°
2026-05-05 13:58 18.33573 -65.01150 634 ft 128 kts 92°
2026-05-05 13:58 18.33626 -65.00196 424 ft 135 kts 93°
2026-05-05 13:58 18.33654 -64.99201 254 ft 134 kts 91°
2026-05-05 13:58 18.33696 -64.98229 48 ft 135 kts 91°
2026-05-05 13:59 18.33746 -64.96938 32 ft 42 kts 87°
2026-05-05 13:59 18.33756 -64.96732 29 ft 14 kts 87°
2026-05-05 14:00 18.33674 -64.96731 31 ft 11 kts 266°
2026-05-05 14:00 18.33671 -64.96799 31 ft 16 kts 267°
2026-05-05 14:00 18.33661 -64.96987 31 ft 21 kts 268°
2026-05-05 14:00 18.33655 -64.97136 31 ft 20 kts 266°
2026-05-05 14:01 18.33646 -64.97279 31 ft 19 kts 266°
2026-05-05 14:01 18.33631 -64.97383 31 ft 11 kts 232°
2026-05-05 14:01 18.33565 -64.97397 31 ft 9 kts 177°
2026-05-05 14:01 18.33502 -64.97393 30 ft 9 kts 172°
2026-05-05 14:02 18.33458 -64.97368 30 ft 6 kts 117°
2026-05-05 14:02 18.33471 -64.97336 30 ft 4 kts 46°
2026-05-05 14:02 18.33484 -64.97323 31 ft 1 kts 46°
2026-05-05 14:02 18.33488 -64.97318 31 ft 1 kts 46°
2026-05-05 14:03 18.33490 -64.97316 31 ft 0 kts 46°
2026-05-05 14:16 18.33489 -64.97316 31 ft 0 kts 46°
2026-05-05 14:38 18.33489 -64.97317 31 ft 0 kts 46°